�������l�o���
Date,Time,MP-1(��Sv/h),MP-2(��Sv/h),MP-3(��Sv/h),MP-4(��Sv/h),MP-5(��Sv/h),MP-6(��Sv/h),MP-7(��Sv/h),MP-8(��Sv/h),����,����(m/s),���J
2023/08/02,00:00,0.533,0.806,0.494,0.985,0.715,0.321,0.571,0.532,�k�k��,1.4,��
2023/08/02,00:10,0.535,0.805,0.495,0.984,0.717,0.322,0.572,0.532,�k��,1.2,��
2023/08/02,00:20,0.535,0.806,0.495,0.984,0.717,0.322,0.570,0.532,�k��,2.3,��
2023/08/02,00:30,0.536,0.806,0.495,0.984,0.718,0.322,0.570,0.533,�k��,1.7,��
2023/08/02,00:40,0.535,0.807,0.495,0.983,0.715,0.323,0.572,0.532,���k��,1.2,��
2023/08/02,00:50,0.535,0.806,0.494,0.983,0.716,0.321,0.572,0.533,���k��,0.9,��
2023/08/02,01:00,0.536,0.805,0.497,0.987,0.718,0.322,0.571,0.531,�쐼,0.9,��
2023/08/02,01:10,0.536,0.806,0.495,0.985,0.716,0.320,0.571,0.533,��,0.9,��
2023/08/02,01:20,0.535,0.807,0.493,0.984,0.717,0.322,0.573,0.533,�쓌,1.5,��
2023/08/02,01:30,0.535,0.805,0.494,0.984,0.717,0.323,0.571,0.532,��쓌,1.7,��
2023/08/02,01:40,0.535,0.806,0.495,0.984,0.717,0.320,0.573,0.533,��쓌,4.1,��
2023/08/02,01:50,0.535,0.804,0.494,0.984,0.717,0.320,0.572,0.532,��쓌,4.2,��
2023/08/02,02:00,0.533,0.805,0.495,0.986,0.717,0.320,0.572,0.532,��,4.4,��
2023/08/02,02:10,0.534,0.805,0.496,0.985,0.717,0.322,0.572,0.532,��,3.9,��
2023/08/02,02:20,0.535,0.807,0.495,0.987,0.717,0.320,0.571,0.532,��,2.3,��
2023/08/02,02:30,0.534,0.805,0.493,0.984,0.717,0.321,0.573,0.534,��,2.0,��
2023/08/02,02:40,0.533,0.806,0.495,0.987,0.719,0.322,0.572,0.533,��쓌,1.4,��
2023/08/02,02:50,0.534,0.804,0.495,0.987,0.718,0.321,0.572,0.533,��쐼,1.9,��
2023/08/02,03:00,0.533,0.807,0.495,0.986,0.716,0.321,0.574,0.533,��쐼,2.0,��
2023/08/02,03:10,0.534,0.807,0.494,0.983,0.717,0.321,0.573,0.533,��쐼,2.3,��
2023/08/02,03:20,0.535,0.805,0.496,0.985,0.718,0.320,0.573,0.531,��쐼,1.7,��
2023/08/02,03:30,0.534,0.805,0.493,0.986,0.717,0.320,0.573,0.534,-,CALM,��
2023/08/02,03:40,0.536,0.807,0.494,0.986,0.717,0.321,0.574,0.533,��,1.1,��
2023/08/02,03:50,0.534,0.806,0.495,0.985,0.717,0.322,0.573,0.534,�k�k��,0.8,��
2023/08/02,04:00,0.535,0.807,0.494,0.987,0.718,0.322,0.574,0.533,�k�k��,1.2,��
2023/08/02,04:10,0.534,0.807,0.496,0.988,0.719,0.320,0.573,0.533,�k,1.7,��
2023/08/02,04:20,0.535,0.808,0.494,0.986,0.719,0.322,0.574,0.532,�k,1.1,��
2023/08/02,04:30,0.535,0.809,0.495,0.985,0.720,0.322,0.574,0.532,�k,0.9,��
2023/08/02,04:40,0.533,0.805,0.496,0.987,0.718,0.321,0.573,0.532,-,CALM,��
2023/08/02,04:50,0.536,0.807,0.495,0.987,0.718,0.321,0.575,0.533,-,CALM,��
2023/08/02,05:00,0.537,0.809,0.495,0.987,0.718,0.321,0.575,0.533,��,0.9,��
2023/08/02,05:10,0.535,0.806,0.494,0.985,0.719,0.323,0.572,0.532,�k��,1.1,��
2023/08/02,05:20,0.536,0.807,0.495,0.987,0.718,0.322,0.575,0.534,���k��,1.1,��
2023/08/02,05:30,0.536,0.807,0.495,0.985,0.718,0.321,0.575,0.534,���k��,1.5,��
2023/08/02,05:40,0.534,0.807,0.494,0.985,0.718,0.320,0.575,0.533,���k��,2.2,��
2023/08/02,05:50,0.533,0.806,0.495,0.987,0.718,0.321,0.575,0.532,���k��,2.8,��
2023/08/02,06:00,0.535,0.809,0.497,0.987,0.718,0.321,0.575,0.534,��,2.3,��
2023/08/02,06:10,0.534,0.806,0.493,0.986,0.718,0.321,0.574,0.532,��,2.0,��
2023/08/02,06:20,0.535,0.807,0.495,0.983,0.717,0.322,0.573,0.533,���k��,2.5,��
2023/08/02,06:30,0.534,0.807,0.494,0.987,0.716,0.321,0.575,0.533,���k��,2.6,��
2023/08/02,06:40,0.534,0.806,0.494,0.987,0.716,0.322,0.576,0.533,���k��,2.5,��
2023/08/02,06:50,0.532,0.804,0.496,0.986,0.718,0.323,0.576,0.533,��,1.2,��
2023/08/02,07:00,0.533,0.806,0.495,0.985,0.718,0.321,0.575,0.533,���k��,1.5,��
2023/08/02,07:10,0.536,0.804,0.496,0.985,0.717,0.321,0.576,0.534,���k��,1.5,��
2023/08/02,07:20,0.536,0.804,0.495,0.988,0.718,0.322,0.575,0.533,�k��,1.4,��
2023/08/02,07:30,0.536,0.806,0.494,0.986,0.716,0.321,0.576,0.533,�k�k��,0.9,��
2023/08/02,07:40,0.534,0.808,0.494,0.986,0.714,0.322,0.576,0.536,�k,0.6,��
2023/08/02,07:50,0.536,0.805,0.494,0.985,0.717,0.323,0.577,0.533,�k,0.9,��
2023/08/02,08:00,0.536,0.806,0.495,0.985,0.718,0.322,0.575,0.533,�k�k��,0.9,��
2023/08/02,08:10,0.536,0.808,0.496,0.987,0.716,0.322,0.576,0.532,�k�k��,1.2,��
2023/08/02,08:20,0.538,0.808,0.496,0.984,0.718,0.321,0.574,0.532,��,0.9,��
2023/08/02,08:30,0.537,0.809,0.496,0.985,0.716,0.321,0.575,0.532,��,1.1,��
2023/08/02,08:40,0.535,0.807,0.495,0.987,0.720,0.321,0.576,0.531,�k��,1.5,��
2023/08/02,08:50,0.537,0.806,0.496,0.985,0.718,0.322,0.577,0.532,��,1.4,��
2023/08/02,09:00,0.536,0.809,0.496,0.988,0.719,0.320,0.577,0.532,��,2.3,��
2023/08/02,09:10,0.537,0.809,0.495,0.986,0.718,0.320,0.576,0.533,���쓌,1.1,��
2023/08/02,09:20,0.537,0.809,0.495,0.988,0.720,0.322,0.576,0.533,���쓌,2.0,��
2023/08/02,09:30,0.537,0.808,0.496,0.986,0.720,0.320,0.576,0.533,���쓌,2.3,��
2023/08/02,09:40,0.537,0.808,0.496,0.990,0.719,0.320,0.577,0.533,�쓌,3.5,��
2023/08/02,09:50,0.538,0.810,0.496,0.987,0.719,0.322,0.576,0.533,���쓌,3.8,��
2023/08/02,10:00,0.536,0.810,0.496,0.987,0.720,0.322,0.576,0.533,�쓌,4.3,��
2023/08/02,10:10,0.538,0.810,0.495,0.987,0.721,0.321,0.576,0.533,�쓌,4.4,��
2023/08/02,10:20,0.537,0.811,0.495,0.987,0.722,0.321,0.573,0.534,��쓌,4.6,��
2023/08/02,10:30,0.537,0.810,0.496,0.986,0.719,0.322,0.573,0.533,��쓌,4.9,��
2023/08/02,10:40,0.538,0.812,0.499,0.989,0.722,0.323,0.576,0.533,��쓌,5.2,��
2023/08/02,10:50,0.539,0.811,0.496,0.987,0.724,0.321,0.574,0.533,��쓌,6.0,��
2023/08/02,11:00,0.539,0.812,0.498,0.989,0.722,0.322,0.576,0.534,��쓌,6.1,��
2023/08/02,11:10,0.539,0.812,0.498,0.991,0.722,0.323,0.575,0.532,��쓌,6.5,-
2023/08/02,11:20,0.538,0.810,0.497,0.987,0.721,0.322,0.576,0.532,��쓌,6.3,-
2023/08/02,11:30,0.538,0.813,0.496,0.988,0.723,0.322,0.576,0.533,��쓌,7.2,�L
2023/08/02,11:40,0.539,0.813,0.496,0.985,0.724,0.323,0.576,0.534,��쓌,6.3,��
2023/08/02,11:50,0.535,0.813,0.497,0.986,0.725,0.322,0.577,0.534,��쓌,6.6,��
2023/08/02,12:00,0.540,0.809,0.501,0.987,0.725,0.322,0.573,0.534,��쓌,5.8,��
2023/08/02,12:10,0.539,0.815,0.498,0.988,0.725,0.322,0.575,0.535,��쓌,5.8,��
2023/08/02,12:20,0.539,0.813,0.499,0.988,0.726,0.322,0.575,0.534,��쓌,5.7,��
2023/08/02,12:30,0.541,0.816,0.499,0.988,0.728,0.323,0.577,0.533,��쓌,6.3,��
2023/08/02,12:40,0.540,0.814,0.499,0.988,0.726,0.323,0.575,0.533,��쓌,6.5,��
2023/08/02,12:50,0.540,0.816,0.500,0.988,0.726,0.322,0.575,0.534,��쓌,7.2,��
2023/08/02,13:00,0.540,0.814,0.501,0.990,0.725,0.322,0.574,0.535,��쓌,7.6,��
2023/08/02,13:10,0.541,0.816,0.502,0.990,0.729,0.323,0.574,0.536,��,7.0,��
2023/08/02,13:20,0.541,0.818,0.500,0.989,0.729,0.324,0.576,0.534,��,6.7,��
2023/08/02,13:30,0.542,0.818,0.501,0.990,0.729,0.324,0.576,0.535,��,6.3,��
2023/08/02,13:40,0.541,0.817,0.501,0.989,0.729,0.326,0.577,0.536,��쓌,6.5,��
2023/08/02,13:50,0.540,0.818,0.500,0.990,0.730,0.325,0.578,0.535,��,6.2,��
2023/08/02,14:00,0.540,0.819,0.501,0.992,0.730,0.322,0.577,0.534,��쓌,5.9,��
2023/08/02,14:10,0.539,0.819,0.502,0.992,0.731,0.324,0.577,0.536,��쓌,7.4,��
2023/08/02,14:20,0.539,0.818,0.501,0.990,0.730,0.326,0.576,0.533,��쓌,8.8,��
2023/08/02,14:30,0.538,0.819,0.500,0.990,0.730,0.325,0.578,0.536,��쓌,10.2,��
2023/08/02,14:40,0.539,0.816,0.500,0.990,0.731,0.325,0.577,0.536,��,10.5,��
2023/08/02,14:50,0.539,0.818,0.501,0.991,0.730,0.323,0.577,0.534,��쓌,9.0,��
2023/08/02,15:00,0.539,0.808,0.500,0.992,0.731,0.325,0.576,0.534,��,9.6,��
2023/08/02,15:10,0.540,0.818,0.500,0.991,0.731,0.325,0.576,0.533,��,8.8,��
2023/08/02,15:20,0.542,0.817,0.500,0.991,0.730,0.323,0.577,0.534,��,7.4,��
2023/08/02,15:30,0.541,0.818,0.501,0.994,0.731,0.325,0.576,0.534,��,6.5,��
2023/08/02,15:40,0.541,0.817,0.501,0.993,0.732,0.325,0.577,0.533,��,6.2,��
2023/08/02,15:50,0.541,0.820,0.501,0.994,0.731,0.322,0.577,0.533,��,6.2,��
2023/08/02,16:00,0.541,0.819,0.500,0.996,0.732,0.323,0.575,0.534,��,6.8,��
2023/08/02,16:10,0.540,0.819,0.501,0.995,0.732,0.323,0.575,0.535,��,7.5,��
2023/08/02,16:20,0.542,0.818,0.500,0.996,0.730,0.324,0.576,0.534,��쓌,7.3,��
2023/08/02,16:30,0.541,0.819,0.501,0.997,0.729,0.323,0.575,0.535,��,8.0,��
2023/08/02,16:40,0.542,0.819,0.500,0.995,0.730,0.321,0.575,0.535,��,8.9,��
2023/08/02,16:50,0.540,0.818,0.499,0.993,0.728,0.325,0.575,0.535,��,8.4,��
2023/08/02,17:00,0.540,0.818,0.498,0.992,0.732,0.324,0.574,0.535,��,9.2,��
2023/08/02,17:10,0.540,0.818,0.499,0.993,0.731,0.324,0.576,0.535,��,8.5,��
2023/08/02,17:20,0.542,0.820,0.500,0.995,0.731,0.324,0.575,0.535,��,9.4,��
2023/08/02,17:30,0.541,0.818,0.500,0.996,0.731,0.323,0.574,0.535,��,8.9,��
2023/08/02,17:40,0.541,0.820,0.500,0.996,0.733,0.324,0.573,0.535,��,7.0,��
2023/08/02,17:50,0.541,0.819,0.501,0.994,0.731,0.323,0.574,0.534,���쐼,1.7,��
2023/08/02,18:00,0.539,0.817,0.500,0.993,0.730,0.324,0.575,0.535,���쐼,1.9,��
2023/08/02,18:10,0.542,0.820,0.500,0.995,0.731,0.323,0.574,0.534,�쐼,1.4,��
2023/08/02,18:20,0.541,0.818,0.501,0.995,0.731,0.324,0.574,0.536,�k�k��,2.0,��
2023/08/02,18:30,0.542,0.819,0.498,0.993,0.732,0.324,0.575,0.534,�k�k��,1.4,��
2023/08/02,18:40,0.542,0.819,0.499,0.996,0.732,0.325,0.575,0.533,�k�k��,0.9,��
2023/08/02,18:50,0.543,0.817,0.501,0.995,0.732,0.325,0.576,0.534,���쓌,1.4,��
2023/08/02,19:00,0.541,0.819,0.500,0.994,0.731,0.325,0.575,0.534,��쐼,0.9,��
2023/08/02,19:10,0.541,0.818,0.501,0.996,0.731,0.325,0.575,0.534,��쓌,0.6,��
2023/08/02,19:20,0.542,0.819,0.499,0.996,0.733,0.323,0.576,0.535,��쓌,1.1,��
2023/08/02,19:30,0.541,0.820,0.499,0.996,0.732,0.325,0.575,0.534,��,1.2,��
2023/08/02,19:40,0.543,0.818,0.501,0.994,0.730,0.324,0.574,0.535,��,2.3,��
2023/08/02,19:50,0.542,0.818,0.499,0.997,0.731,0.323,0.574,0.535,��쓌,3.6,��
2023/08/02,20:00,0.542,0.819,0.501,0.996,0.732,0.324,0.574,0.535,��,2.6,��
2023/08/02,20:10,0.542,0.818,0.501,0.995,0.732,0.325,0.576,0.535,��,4.0,��
2023/08/02,20:20,0.542,0.820,0.502,0.996,0.734,0.325,0.574,0.535,��쐼,3.4,��
2023/08/02,20:30,0.542,0.820,0.501,0.995,0.733,0.325,0.575,0.535,��,2.6,��
2023/08/02,20:40,0.543,0.821,0.502,1.000,0.732,0.325,0.575,0.536,��,2.6,��
2023/08/02,20:50,0.542,0.821,0.502,0.998,0.733,0.325,0.576,0.536,��,2.8,��
2023/08/02,21:00,0.541,0.820,0.502,0.998,0.733,0.325,0.575,0.535,��,3.2,��
2023/08/02,21:10,0.543,0.819,0.502,0.995,0.733,0.325,0.575,0.534,��,3.4,��
2023/08/02,21:20,0.542,0.822,0.500,0.998,0.733,0.327,0.576,0.535,��,3.2,��
2023/08/02,21:30,0.543,0.821,0.501,0.995,0.733,0.325,0.576,0.535,��,3.5,��
2023/08/02,21:40,0.544,0.820,0.502,0.996,0.731,0.327,0.575,0.534,��,3.5,��
2023/08/02,21:50,0.543,0.819,0.501,0.998,0.733,0.326,0.576,0.535,��,4.1,��
2023/08/02,22:00,0.543,0.820,0.501,0.996,0.735,0.326,0.575,0.534,��,3.9,��
2023/08/02,22:10,0.544,0.819,0.502,0.994,0.733,0.326,0.574,0.535,��,4.3,��
2023/08/02,22:20,0.542,0.820,0.502,0.997,0.733,0.326,0.575,0.535,��쐼,3.1,��
2023/08/02,22:30,0.542,0.819,0.500,0.996,0.732,0.325,0.575,0.536,��쐼,2.6,��
2023/08/02,22:40,0.541,0.821,0.502,0.996,0.734,0.325,0.576,0.534,��쐼,3.1,��
2023/08/02,22:50,0.543,0.821,0.501,0.997,0.733,0.325,0.577,0.535,��,3.6,��
2023/08/02,23:00,0.541,0.821,0.500,0.997,0.734,0.325,0.575,0.536,��쐼,4.3,��
2023/08/02,23:10,0.543,0.820,0.502,0.999,0.732,0.326,0.575,0.536,��,3.4,��
2023/08/02,23:20,0.543,0.820,0.501,0.997,0.733,0.325,0.575,0.535,��,4.0,��
2023/08/02,23:30,0.542,0.818,0.501,0.997,0.734,0.325,0.575,0.535,��쐼,3.9,��
2023/08/02,23:40,0.542,0.821,0.501,0.996,0.732,0.323,0.575,0.537,��쐼,3.3,��
2023/08/02,23:50,0.542,0.821,0.502,0.996,0.732,0.326,0.575,0.535,��쐼,3.8,��
